Springfield, IL

7:55 PM CST on January 21, 2017 (GMT -0600)
Springfield

Weather History for KSPI - November, 2011

Change the Weather History Date:

Saturday, November 19, 2011

  Actual Average Record
Temperature  
Mean Temperature 54 °F 42 °F  
Max Temperature 61 °F 51 °F 77 °F (1950)
Min Temperature 46 °F 33 °F 7 °F (1880)
Degree Days  
Heating Degree Days 11 24  
Month to date heating degree days 263 366  
Since 1 July heating degree days 669 776  
Cooling Degree Days 0 0  
Month to date cooling degree days 0 0  
Year to date cooling degree days 1447 1121  
Growing Degree Days 3 (Base 50)    
Moisture  
Dew Point 41 °F    
Average Humidity 61    
Maximum Humidity 80    
Minimum Humidity 42    
Precipitation  
Precipitation 0.00 in 0.11 in 1.31 in (1950)
Month to date precipitation 2.03 2.01  
Year to date precipitation 26.71 33.71  
Snow  
Snow 0.00 in 0.00 in 4.80 in (1961)
Month to date snowfall 0.0 0.2  
Since 1 July snowfall 0.0 0.2  
Since 1 September snowfall 0.0 0.2  
Snow Depth 0.00 in    
Sea Level Pressure  
Sea Level Pressure 29.87 in    
Wind  
Wind Speed 20 mph (South)    
Max Wind Speed 28 mph    
Max Gust Speed 37 mph    
Visibility 10 miles    
Events      
T = Trace of Precipitation, MM = Missing Value Source: NWS Daily Summary

Daily Weather History Graph

Daily Weather History Graph

Search for Another Location

Airport or City:

Trip Planner

Search our weather history database for the weather conditions in past years. The results will help you decide how hot, cold, wet, or windy it might be!

Date:

Astronomy

Nov. 19, 2011 Rise Set
Actual Time 6:47 AM CST 4:40 PM CST
Civil Twilight 6:18 AM CST 5:09 PM CST
Nautical Twilight 5:45 AM CST 5:42 PM CST
Astronomical Twilight 5:13 AM CST 6:14 PM CST
Moon 12:08 AM CST (11/19) 12:57 PM CST (11/19)
Length of Visible Light 10h 50m
Length of Day
9h 52m
Last Quarter, 38% of the Moon is Illuminated
Nov 19
Last Quarter
Nov 25
New
Dec 2
First Quarter
Dec 10
Full
Dec 17
Last Quarter

Hourly Weather History & Observations

Time (CST) Temp. Dew Point Humidity Pressure Visibility Wind Dir Wind Speed Gust Speed Precip Events Conditions
12:52 AM 46.9 °F 24.1 °F 41% 29.96 in 10.0 mi South 18.4 mph 23.0 mph N/A   Overcast
1:52 AM 46.9 °F 25.0 °F 42% 29.95 in 10.0 mi South 15.0 mph 21.9 mph N/A   Overcast
2:52 AM 46.9 °F 25.0 °F 42% 29.94 in 10.0 mi South 16.1 mph - N/A   Overcast
3:52 AM 46.9 °F 26.1 °F 44% 29.92 in 10.0 mi South 17.3 mph - N/A   Overcast
4:52 AM 48.2 °F 26.6 °F 43% 29.91 in 10.0 mi South 19.6 mph 27.6 mph N/A   Overcast
5:52 AM 48.0 °F 28.0 °F 46% 29.91 in 10.0 mi South 20.7 mph 31.1 mph N/A   Overcast
6:52 AM 48.9 °F 28.9 °F 46% 29.90 in 10.0 mi South 23.0 mph 29.9 mph N/A   Overcast
7:52 AM 50.0 °F 30.9 °F 48% 29.90 in 10.0 mi South 23.0 mph 33.4 mph N/A   Overcast
8:52 AM 50.0 °F 34.0 °F 54% 29.90 in 10.0 mi South 25.3 mph 29.9 mph N/A   Overcast
9:52 AM 52.0 °F 37.0 °F 57% 29.89 in 10.0 mi South 21.9 mph 28.8 mph N/A   Overcast
10:52 AM 54.0 °F 39.9 °F 59% 29.86 in 10.0 mi South 15.0 mph 27.6 mph N/A   Overcast
11:52 AM 55.9 °F 42.1 °F 60% 29.81 in 10.0 mi South 21.9 mph 28.8 mph N/A   Overcast
12:52 PM 59.0 °F 44.1 °F 58% 29.77 in 10.0 mi South 25.3 mph 36.8 mph N/A   Overcast
1:52 PM 59.0 °F 46.9 °F 64% 29.76 in 10.0 mi South 26.5 mph 32.2 mph N/A   Overcast
2:00 PM 60.8 °F 46.4 °F 59% 29.77 in 10.0 mi South 24.2 mph 33.4 mph N/A   Overcast
2:40 PM 59.0 °F 48.2 °F 67% 29.77 in 10.0 mi South 23.0 mph 33.4 mph N/A   Overcast
2:52 PM 59.0 °F 48.2 °F 67% 29.76 in 10.0 mi South 24.2 mph 29.9 mph N/A   Overcast
3:52 PM 59.0 °F 48.0 °F 67% 29.77 in 10.0 mi South 21.9 mph 32.2 mph N/A   Overcast
4:52 PM 57.9 °F 48.9 °F 72% 29.78 in 10.0 mi South 20.7 mph 28.8 mph N/A   Partly Cloudy
5:52 PM 55.9 °F 48.0 °F 75% 29.81 in 10.0 mi South 19.6 mph 28.8 mph N/A   Mostly Cloudy
6:52 PM 55.9 °F 48.9 °F 77% 29.82 in 10.0 mi South 17.3 mph 26.5 mph N/A   Clear
7:52 PM 57.9 °F 51.1 °F 78% 29.83 in 10.0 mi South 21.9 mph 28.8 mph N/A   Clear
8:52 PM 59.0 °F 51.8 °F 77% 29.86 in 10.0 mi SSW 19.6 mph 32.2 mph N/A   Scattered Clouds
9:52 PM 59.0 °F 52.0 °F 78% 29.91 in 10.0 mi SSW 13.8 mph - N/A   Mostly Cloudy
10:52 PM 60.1 °F 53.1 °F 78% 29.95 in 10.0 mi SW 10.4 mph - N/A   Overcast
11:36 PM 60.8 °F 53.6 °F 77% 29.98 in 10.0 mi West 11.5 mph - N/A   Overcast
11:52 PM 55.0 °F 46.0 °F 72% 29.99 in 10.0 mi NW 17.3 mph - N/A   Overcast